PBO Station Position Time Series. Reference Frame : NAM14
Format Version,1.1.0
4-character ID,MWTP
Station name,Mammoth_Water_Tr
Begin Date, 1998-08-14
End Date, 2019-10-07
Release Date, 2019-10-08
Reference position, 37.6405190432 North Latitude, -118.9447308879 East Longitude, 2317.40322 meters elevation,
Date, North (mm), East (mm), Vertical (mm), North Std. Deviation (mm), East Std. Deviation (mm),              Vertical Std. Deviation (mm), Quality,
1998-08-14,0.00, 0.00, 0.00, 2.16, 1.80, 7.92, repro,
1998-08-15,-0.13, -2.55, 14.43, 2.18, 1.79, 7.92, repro,
1998-08-16,0.43, -0.35, 6.15, 2.22, 1.84, 8.11, repro,
1998-08-17,1.82, -0.47, 13.19, 2.16, 1.79, 7.91, repro,
1998-08-18,-0.88, -0.49, -6.64, 2.14, 1.80, 7.89, repro,
1998-08-19,-1.05, -2.34, -0.93, 2.13, 1.79, 7.93, repro,
1998-08-20,2.25, -1.68, -5.63, 2.17, 1.79, 7.89, repro,
1998-08-21,0.07, -1.49, 1.11, 2.14, 1.76, 7.76, repro,
1998-08-22,0.17, -1.08, -7.31, 2.17, 1.84, 8.03, repro,
1998-08-23,-2.08, -3.85, 6.28, 2.15, 1.79, 7.84, repro,
1998-08-24,3.00, 1.55, 2.19, 2.16, 1.81, 7.91, repro,
1998-08-25,5.13, -0.27, 3.90, 2.18, 1.83, 8.07, repro,
1998-08-26,0.40, -2.51, 2.32, 2.16, 1.79, 7.84, repro,
1998-08-27,0.47, -0.84, 5.84, 2.17, 1.79, 7.89, repro,
1998-08-29,2.41, 0.26, 2.16, 2.16, 1.80, 7.86, repro,
1998-08-30,-0.26, -2.46, 1.36, 2.19, 1.81, 7.94, repro,
1998-08-31,-1.88, -4.39, 5.94, 2.18, 1.82, 8.00, repro,
1998-09-01,0.35, -0.64, 7.58, 2.18, 1.82, 7.99, repro,
1998-09-02,1.49, -0.83, 16.78, 2.17, 1.81, 7.90, repro,
1998-09-03,0.73, -0.37, 9.15, 2.16, 1.81, 7.97, repro,
1998-09-04,-0.05, -1.99, 6.28, 2.16, 1.84, 8.10, repro,
1998-09-05,-1.24, -2.44, -10.23, 2.10, 1.77, 7.78, repro,
1998-09-06,-2.95, -1.00, -2.46, 2.14, 1.84, 7.98, repro,
1998-09-07,1.89, -0.60, 7.73, 2.17, 1.84, 7.96, repro,
1998-09-08,0.14, -0.92, 5.91, 2.20, 1.84, 8.11, repro,
1998-09-09,-14.08, -7.00, -2.93, 2.21, 1.90, 8.38, repro,
1998-09-10,-2.56, -4.30, 10.93, 2.16, 1.80, 7.90, repro,
1998-09-11,-0.68, -0.17, 0.65, 2.20, 1.80, 7.96, repro,
1998-09-12,-0.68, -3.11, -4.44, 2.11, 1.77, 7.79, repro,
1998-09-13,-1.14, -2.13, 3.78, 2.12, 1.77, 7.81, repro,
1998-09-14,2.13, -2.22, 8.45, 2.26, 1.85, 8.23, repro,
1998-09-15,-0.25, -1.53, 6.17, 2.18, 1.81, 8.00, repro,
1998-09-16,-1.86, -2.92, 14.15, 2.15, 1.78, 7.80, repro,
1998-09-17,-2.27, -0.54, -2.58, 2.23, 1.83, 8.13, repro,
1998-09-18,-3.50, -2.47, 7.86, 2.25, 1.83, 8.12, repro,
1998-09-19,1.19, -1.47, 0.89, 2.15, 1.80, 7.86, repro,
1998-09-20,-0.61, 0.74, 22.55, 2.16, 1.81, 7.89, repro,
1998-09-21,-0.73, -0.96, 15.52, 2.17, 1.79, 7.88, repro,
1998-09-22,-2.10, -0.86, 5.78, 2.24, 1.82, 8.30, repro,
1998-09-23,-2.81, -1.08, 0.75, 2.39, 1.94, 8.85, repro,
1998-09-24,-2.40, -2.29, 2.52, 2.25, 1.84, 8.16, repro,
1998-09-25,-0.59, -3.38, -0.35, 2.35, 1.89, 8.43, repro,
1998-09-26,-7.23, -5.42, 4.88, 2.26, 1.86, 8.14, repro,
1998-09-27,-3.35, -1.47, -4.81, 2.24, 1.84, 8.01, repro,
1998-09-28,-2.98, -1.88, 0.92, 2.36, 1.92, 8.33, repro,
1998-09-29,-0.88, -2.80, 6.93, 2.24, 1.82, 7.94, repro,
1998-09-30,-1.43, -2.13, 1.84, 2.18, 1.79, 7.85, repro,
1998-10-01,-1.86, -0.22, 6.79, 2.20, 1.80, 7.94, repro,
1998-10-02,-5.82, -9.23, -2.05, 2.20, 1.80, 7.92, repro,
1998-10-03,-6.27, -3.33, -3.95, 2.42, 1.98, 8.69, repro,
1998-10-04,-1.72, -2.11, 0.52, 2.39, 1.94, 8.65, repro,
1998-10-05,-2.20, -2.30, 14.14, 2.27, 1.89, 8.15, repro,
1998-10-06,-1.09, -0.99, 3.74, 2.31, 1.95, 8.40, repro,
1998-10-07,-4.07, -3.88, 10.02, 2.33, 1.94, 8.33, repro,
1998-10-08,-5.19, -5.99, -1.78, 2.31, 1.90, 8.36, repro,
1998-10-09,-3.51, -3.38, -6.60, 2.30, 1.86, 8.09, repro,
1998-10-10,-1.13, -2.80, 2.19, 2.21, 1.84, 8.07, repro,
1998-10-11,0.06, -1.04, 6.80, 2.34, 1.94, 8.33, repro,
1998-10-12,-1.58, -3.08, 1.68, 2.31, 1.90, 8.28, repro,
1998-10-13,-6.85, -5.77, 0.67, 2.40, 1.97, 8.50, repro,
1998-10-14,-1.21, -2.96, -0.24, 2.35, 1.90, 8.32, repro,
1998-10-15,-1.22, -1.50, 8.29, 3.01, 2.44, 10.58, repro,
1998-11-01,-6.67, -4.10, -16.11, 2.32, 1.93, 8.41, repro,
1998-11-02,-4.11, -3.21, -0.72, 2.23, 1.86, 8.31, repro,
1998-11-03,-3.41, -1.00, -5.55, 2.39, 1.93, 8.68, repro,
1998-11-04,-5.09, 0.83, 10.51, 2.31, 2.00, 8.70, repro,
1998-11-05,1.50, -1.88, -1.42, 2.37, 2.05, 8.78, repro,
1998-11-06,-4.01, -3.20, 10.28, 2.25, 1.89, 8.33, repro,
1998-11-07,-2.69, -3.05, 1.44, 2.27, 1.90, 8.57, repro,
1998-11-08,-3.02, -2.49, -2.84, 2.20, 1.87, 8.16, repro,
1998-11-09,-1.65, -2.10, 1.65, 2.18, 1.83, 8.02, repro,
1998-11-10,-2.19, -1.06, 8.95, 2.24, 1.85, 8.19, repro,
1998-11-11,-1.11, -1.08, -7.04, 2.25, 1.86, 8.01, repro,
1998-11-12,-0.32, -0.81, -1.79, 2.26, 1.85, 8.16, repro,
1998-11-13,1.15, -2.15, -2.49, 2.30, 1.87, 8.28, repro,
1998-11-14,-0.59, 0.55, 11.89, 2.28, 1.86, 8.22, repro,
1998-11-15,-5.09, -3.68, 10.15, 2.23, 1.83, 8.08, repro,
1998-11-16,-1.54, -1.36, 8.55, 2.23, 1.83, 8.08, repro,
1998-11-17,-4.11, -1.79, 3.06, 2.33, 1.88, 8.39, repro,
1998-11-18,-2.56, -1.12, 2.24, 2.67, 2.21, 9.69, repro,
1998-12-03,-3.76, -4.14, 5.18, 2.22, 1.82, 8.10, repro,
1999-02-08,-4.63, -5.72, -28.40, 4.83, 4.43, 19.21, repro,
1999-02-11,-1.07, -1.65, -7.18, 2.27, 1.89, 8.43, repro,
1999-02-14,-5.86, -9.56, -7.80, 9.40, 8.41, 41.99, repro,
1999-02-15,-2.09, -2.74, -10.63, 2.29, 1.89, 8.56, repro,
1999-02-16,-3.43, -3.92, -20.37, 2.19, 1.87, 8.30, repro,
1999-02-17,-6.50, -3.40, -4.71, 4.04, 3.33, 15.56, repro,
1999-02-18,-5.18, -2.34, 6.54, 2.25, 1.87, 8.38, repro,
1999-02-19,-0.95, -2.56, 8.57, 4.12, 3.59, 16.53, repro,
1999-02-20,-1.66, -1.65, -3.86, 2.23, 1.89, 8.33, repro,
1999-02-21,-2.52, -2.63, -12.73, 2.20, 1.83, 8.10, repro,
1999-02-22,-0.10, -3.88, -12.59, 2.21, 1.82, 8.03, repro,
1999-02-23,-0.54, -1.73, -13.53, 2.16, 1.83, 7.95, repro,
1999-02-24,-1.72, -3.13, -5.63, 2.18, 1.82, 7.96, repro,
1999-02-25,-8.31, -5.54, -3.15, 2.16, 1.83, 8.01, repro,
1999-02-26,-0.89, -1.70, -6.17, 2.23, 1.84, 8.07, repro,
1999-02-27,-3.64, -1.16, -7.39, 2.21, 1.83, 8.10, repro,
1999-02-28,-3.99, -3.66, -11.90, 2.15, 1.81, 7.95, repro,
1999-03-01,-3.00, -3.38, -31.54, 2.26, 1.88, 8.34, repro,
1999-03-02,-3.03, -2.73, -15.04, 2.22, 1.83, 8.10, repro,
1999-03-03,-4.13, -0.81, -21.55, 2.18, 1.88, 8.21, repro,
1999-03-04,-2.16, -3.73, -14.81, 2.20, 1.82, 8.09, repro,
1999-03-05,-4.37, -4.66, -20.98, 2.16, 1.80, 7.95, repro,
1999-03-06,-3.73, -4.40, -23.93, 2.21, 1.89, 8.25, repro,
1999-03-07,-4.19, -3.78, -11.40, 2.18, 1.84, 8.06, repro,
1999-03-08,-4.21, -4.12, -10.30, 2.15, 1.80, 7.92, repro,
1999-03-09,-5.07, -4.14, -7.72, 2.18, 1.82, 8.00, repro,
1999-03-10,-1.89, -3.34, -13.95, 2.17, 1.85, 8.06, repro,
1999-03-11,-1.48, -1.95, -14.80, 2.15, 1.80, 7.91, repro,
1999-03-12,-2.61, -2.41, -20.07, 2.24, 1.84, 8.08, repro,
1999-03-13,-2.33, -2.01, -3.38, 2.19, 1.83, 8.00, repro,
1999-03-14,-5.17, -2.31, -4.03, 2.17, 1.82, 7.99, repro,
1999-03-15,-2.01, -1.17, -3.98, 2.22, 1.84, 8.10, repro,
1999-03-16,0.44, -0.69, -3.16, 2.33, 1.91, 8.39, repro,
1999-03-17,-0.81, -0.96, -13.12, 2.23, 1.87, 8.18, repro,
1999-03-18,0.42, -0.28, -8.24, 2.22, 1.86, 8.14, repro,
1999-03-19,-2.79, -0.95, -10.39, 2.30, 1.92, 8.42, repro,
1999-03-20,-1.84, 0.04, -1.70, 2.35, 2.05, 8.71, repro,
1999-03-21,-0.38, -2.16, -1.83, 2.25, 1.87, 8.24, repro,
1999-03-22,0.14, -2.79, -8.23, 2.36, 2.02, 8.81, repro,
1999-03-23,0.78, -1.81, -8.08, 2.33, 1.98, 8.69, repro,
1999-03-24,-0.21, -2.79, -7.56, 2.29, 1.91, 8.36, repro,
1999-03-25,-5.47, -5.65, -15.75, 2.31, 1.96, 8.54, repro,
1999-03-27,2.17, -5.72, -11.43, 2.41, 2.02, 8.99, repro,
1999-03-28,0.36, -0.79, -8.30, 2.26, 1.90, 8.43, repro,
1999-03-29,-1.72, -3.04, -18.64, 2.27, 1.88, 8.38, repro,
1999-03-30,-3.80, -4.67, -22.27, 2.38, 1.94, 8.71, repro,
1999-03-31,-2.89, -3.35, -20.18, 2.34, 1.99, 8.60, repro,
1999-04-01,-1.24, -1.46, -6.96, 2.26, 1.91, 8.33, repro,
1999-04-02,0.21, -1.45, -14.38, 2.28, 1.87, 8.31, repro,
1999-04-03,-0.54, -2.89, -14.49, 2.27, 1.85, 8.22, repro,
1999-04-04,-0.52, -2.98, -9.58, 2.21, 1.82, 8.02, repro,
1999-04-05,0.16, -3.40, -10.41, 2.29, 1.89, 8.32, repro,
1999-04-06,0.76, -1.50, -8.24, 2.24, 1.86, 8.20, repro,
1999-04-07,0.73, 2.35, 6.60, 2.19, 1.87, 8.22, repro,
1999-04-08,-0.46, -2.35, -3.42, 2.19, 1.85, 8.11, repro,
1999-04-09,1.11, -0.10, -0.59, 2.20, 1.89, 8.25, repro,
1999-04-10,0.48, -1.29, -4.85, 2.17, 1.83, 7.99, repro,
1999-04-11,0.89, -2.22, -7.88, 2.18, 1.83, 8.04, repro,
1999-04-12,2.05, -1.52, -6.80, 2.18, 1.83, 8.06, repro,
1999-04-13,2.54, -0.19, -17.58, 2.19, 1.84, 8.07, repro,
1999-04-14,1.92, -0.06, -9.25, 2.20, 1.84, 8.11, repro,
1999-04-15,1.47, -1.05, -17.96, 2.20, 1.82, 8.01, repro,
1999-04-16,0.57, -1.21, -12.66, 2.44, 2.07, 9.19, repro,
1999-04-17,0.92, -1.26, -12.75, 2.26, 1.86, 8.27, repro,
1999-04-18,2.18, -1.45, -11.39, 2.19, 1.83, 8.07, repro,
1999-04-19,1.89, 0.17, 4.27, 2.21, 1.83, 8.07, repro,
1999-04-20,0.24, -1.68, -0.05, 2.25, 1.86, 8.36, repro,
1999-04-21,0.87, -2.06, -4.75, 2.23, 1.83, 8.36, repro,
1999-04-22,4.99, -1.29, -8.46, 2.24, 1.86, 8.40, repro,
1999-04-23,3.30, -1.58, -10.05, 2.21, 1.87, 8.22, repro,
1999-04-24,1.42, -0.67, -2.10, 2.15, 1.81, 7.97, repro,
1999-04-25,2.32, -1.44, -1.63, 2.21, 1.86, 8.29, repro,
1999-04-26,0.34, -3.64, -13.32, 2.17, 1.83, 8.06, repro,
1999-04-27,-1.77, -5.32, -8.75, 2.26, 1.90, 8.42, repro,
1999-04-28,0.01, -2.39, -2.13, 2.19, 1.84, 8.14, repro,
1999-04-29,3.29, -2.13, -3.82, 2.19, 1.83, 8.06, repro,
1999-04-30,2.65, -1.18, -6.30, 2.21, 1.83, 8.04, repro,
1999-05-01,1.85, -1.73, -0.90, 2.21, 1.87, 8.16, repro,
1999-05-02,0.20, 1.49, -6.02, 2.21, 1.84, 8.18, repro,
1999-05-03,-0.06, -4.13, 9.37, 2.20, 1.94, 8.35, repro,
1999-05-04,4.78, -3.10, -0.51, 2.24, 1.98, 8.50, repro,
1999-05-05,3.81, -2.58, 3.81, 4.68, 4.29, 18.36, repro,
1999-05-06,2.21, -0.38, -7.22, 2.24, 1.91, 8.27, repro,
1999-05-07,0.39, 1.37, -5.53, 2.19, 1.85, 8.16, repro,
1999-05-08,1.66, -0.72, 0.76, 2.22, 1.92, 8.27, repro,
1999-05-09,3.38, 0.49, -6.88, 2.24, 1.91, 8.31, repro,
1999-05-10,0.16, 1.54, -6.84, 2.19, 1.83, 8.07, repro,
1999-05-11,1.42, 1.24, -3.71, 2.22, 1.91, 8.24, repro,
1999-05-12,3.13, 0.02, -5.20, 2.24, 1.95, 8.42, repro,
1999-05-13,-2.57, -1.00, -7.07, 2.22, 1.89, 8.18, repro,
1999-05-14,3.13, -1.48, -5.29, 2.25, 1.94, 8.45, repro,
1999-05-15,-0.06, 2.08, 1.24, 2.24, 1.91, 8.29, repro,
1999-05-16,-1.94, 3.52, -6.48, 2.23, 1.90, 8.23, repro,
1999-05-17,-0.97, 1.77, -5.11, 2.28, 1.98, 8.53, repro,
1999-05-18,-0.42, -0.42, 1.84, 2.24, 1.92, 8.40, repro,
1999-05-19,-0.43, 3.54, 5.90, 2.24, 1.89, 8.58, repro,
1999-05-20,-0.36, 2.26, -3.33, 2.25, 1.92, 8.24, repro,
1999-05-21,-2.02, 2.20, -3.60, 2.22, 1.89, 8.16, repro,
1999-05-22,0.43, 2.27, -0.14, 2.17, 1.83, 8.02, repro,
1999-05-23,-1.66, 0.70, -3.07, 2.19, 1.83, 8.10, repro,
1999-05-24,-0.11, 1.92, -4.32, 2.23, 1.89, 8.20, repro,
1999-05-25,-2.99, 2.76, -2.72, 2.19, 1.84, 8.17, repro,
1999-05-26,-0.82, 0.38, -12.52, 2.23, 1.90, 8.19, repro,
1999-05-27,-1.15, 3.11, -3.21, 2.17, 1.87, 8.14, repro,
1999-05-28,-0.92, 0.49, -4.18, 2.17, 1.82, 8.05, repro,
1999-05-29,0.61, 2.50, 4.67, 2.21, 1.84, 8.15, repro,
1999-05-30,-0.15, 2.38, 0.20, 2.18, 1.83, 8.10, repro,
1999-05-31,-1.75, 3.41, -2.42, 2.19, 1.82, 8.06, repro,
1999-06-01,-2.89, 0.01, 6.28, 2.28, 1.85, 8.46, repro,
1999-06-02,-7.47, -0.50, 3.14, 2.17, 1.83, 8.11, repro,
1999-06-03,-2.59, 1.09, 10.86, 2.23, 1.85, 8.20, repro,
1999-06-04,-0.47, 2.23, 6.82, 2.19, 1.83, 8.07, repro,
1999-06-05,-1.04, 2.86, 13.83, 2.18, 1.84, 8.12, repro,
1999-06-06,1.07, 4.43, -2.49, 2.20, 1.84, 8.23, repro,
1999-06-07,-2.63, 4.01, -11.67, 2.19, 1.87, 8.19, repro,
1999-06-08,-2.59, 3.11, 4.33, 2.16, 1.83, 8.06, repro,
1999-06-09,-0.16, 4.85, 19.67, 2.19, 1.84, 8.19, repro,
1999-06-10,-0.43, 2.42, 13.72, 2.21, 1.84, 8.27, repro,
1999-06-11,-1.09, 3.05, 1.64, 2.24, 1.88, 8.48, repro,
1999-06-12,-1.13, 1.98, 2.42, 2.17, 1.84, 8.14, repro,
1999-06-13,-2.33, 2.80, -1.30, 2.19, 1.84, 8.13, repro,
1999-06-14,-0.80, 1.21, -1.77, 2.36, 1.87, 8.70, repro,
1999-06-15,-2.04, 1.45, -4.94, 2.24, 1.84, 8.20, repro,
1999-06-16,0.42, 2.98, 8.30, 2.37, 2.02, 8.93, repro,
1999-06-17,-3.11, 6.63, 10.48, 4.35, 3.95, 17.69, repro,
1999-06-18,-2.58, 4.49, -0.49, 3.34, 2.87, 12.98, repro,
1999-06-19,-0.83, 2.20, -5.66, 2.24, 1.86, 8.23, repro,
1999-06-20,-0.93, 2.28, 11.85, 2.19, 1.84, 8.18, repro,
1999-06-21,-5.14, 4.24, 56.64, 19.29, 27.24, 64.32, repro,
1999-06-22,-0.52, 4.02, 15.77, 2.26, 1.85, 8.34, repro,
1999-06-23,-7.07, -2.96, 12.95, 5.73, 4.28, 19.71, repro,
1999-06-24,-5.72, 2.95, -0.17, 4.90, 3.84, 17.08, repro,
1999-06-25,0.18, 4.08, 3.34, 2.28, 1.91, 8.40, repro,
1999-06-26,1.13, 5.45, 3.33, 2.26, 1.90, 8.24, repro,
1999-06-27,0.72, 2.63, 11.84, 2.24, 1.85, 8.40, repro,
1999-06-28,-2.41, 2.19, 1.21, 2.19, 1.90, 8.12, repro,
1999-06-29,-0.42, 6.69, -2.16, 2.93, 2.43, 10.66, repro,
1999-06-30,-0.36, 4.57, 10.56, 2.26, 1.88, 8.52, repro,
1999-07-01,0.07, 8.56, 18.73, 2.53, 2.09, 9.66, repro,
1999-07-02,-2.34, 4.23, 14.98, 2.28, 1.88, 8.64, repro,
1999-07-03,-5.65, 0.50, 24.29, 2.34, 1.91, 8.96, repro,
1999-07-04,-5.65, -1.73, 6.91, 2.20, 1.82, 8.14, repro,
1999-07-05,-0.27, 3.13, -1.44, 2.16, 1.79, 7.94, repro,
1999-07-06,-0.03, 3.13, 6.38, 2.20, 1.83, 8.17, repro,
1999-07-07,0.32, 2.15, 5.16, 2.39, 1.95, 8.82, repro,
1999-07-08,-2.80, 1.60, 15.37, 2.89, 2.32, 10.65, repro,
1999-07-09,-0.93, 3.72, -1.31, 2.29, 1.86, 8.43, repro,
1999-07-10,1.70, 4.77, 1.80, 3.52, 2.80, 13.16, repro,
1999-07-11,1.01, 3.34, 2.53, 2.28, 1.87, 8.51, repro,
1999-07-12,0.94, 8.18, 29.22, 6.06, 4.60, 22.04, repro,
1999-07-13,-0.36, 1.26, 7.27, 2.25, 1.84, 8.41, repro,
1999-07-14,-1.36, 5.16, 15.75, 2.19, 1.82, 8.12, repro,
1999-07-15,-7.29, -2.61, -5.13, 4.20, 3.38, 14.76, repro,
1999-07-16,-5.18, 2.37, 4.45, 2.24, 1.83, 8.41, repro,
1999-07-17,-0.94, 2.60, -3.60, 2.18, 1.83, 8.16, repro,
1999-07-18,-2.41, 4.45, 9.04, 2.27, 1.85, 8.40, repro,
1999-07-19,-2.04, 1.68, 5.93, 2.31, 1.87, 8.68, repro,
1999-07-20,-4.94, -0.60, 0.34, 2.30, 1.86, 8.46, repro,
1999-07-21,0.18, 3.01, 3.86, 2.45, 2.10, 9.23, repro,
1999-07-22,-2.55, 2.36, 3.16, 2.24, 1.83, 8.29, repro,
1999-07-23,-2.99, -1.01, 2.67, 2.25, 1.83, 8.35, repro,
1999-07-24,-3.98, 1.90, 14.68, 2.28, 1.85, 8.41, repro,
1999-07-25,-0.74, 4.22, 6.14, 2.26, 1.86, 8.39, repro,
1999-07-26,-0.56, 2.77, 6.27, 2.33, 1.89, 8.42, repro,
1999-07-27,-0.95, 4.80, 16.26, 2.27, 1.85, 8.42, repro,
1999-07-28,-0.56, 0.62, 14.54, 3.59, 2.89, 12.97, repro,
1999-07-29,-0.16, 3.53, 10.94, 2.23, 1.86, 8.23, repro,
1999-07-30,-0.05, 3.59, 25.30, 2.26, 1.91, 8.43, repro,
1999-07-31,0.01, 3.63, 9.16, 2.16, 1.81, 7.98, repro,
1999-08-01,0.08, 5.22, -0.01, 2.17, 1.82, 8.03, repro,
1999-08-02,1.80, 4.32, 3.00, 2.19, 1.81, 8.08, repro,
1999-08-03,-1.13, 5.57, 3.26, 2.22, 1.88, 8.22, repro,
1999-08-04,0.30, 5.02, 0.68, 2.22, 1.87, 8.37, repro,
1999-08-05,0.50, 5.59, 7.17, 2.24, 1.88, 8.23, repro,
1999-08-06,-2.03, 2.86, 2.85, 2.27, 1.88, 8.37, repro,
1999-08-07,-3.22, 2.38, 9.21, 2.17, 1.82, 8.06, repro,
1999-08-08,0.92, 4.50, 6.56, 2.39, 2.06, 8.97, repro,
1999-08-09,-0.88, 2.77, 5.36, 2.28, 1.94, 8.37, repro,
1999-08-10,0.62, 6.08, 16.55, 2.26, 1.94, 8.42, repro,
1999-08-11,0.45, 5.33, 1.37, 2.67, 2.37, 10.45, repro,
1999-08-12,0.41, 5.72, 0.21, 2.19, 1.82, 8.22, repro,
1999-08-13,-0.42, 3.87, 1.96, 2.17, 1.82, 8.08, repro,
1999-08-14,-2.95, 0.91, 9.26, 2.17, 1.81, 8.02, repro,
1999-08-15,0.68, 4.24, 4.43, 2.32, 1.89, 8.44, repro,
1999-08-16,-1.38, 6.23, 5.06, 2.16, 1.83, 7.97, repro,
1999-08-17,0.28, 4.81, -0.67, 2.21, 1.87, 8.21, repro,
1999-08-18,3.82, 5.17, -1.63, 2.19, 1.84, 8.21, repro,
1999-08-19,1.22, 4.60, 11.16, 2.20, 1.86, 8.22, repro,
1999-08-20,1.47, 4.02, 9.62, 2.25, 1.87, 8.30, repro,
1999-08-21,1.77, 6.18, 9.35, 2.18, 1.84, 8.13, repro,
1999-08-22,1.16, 3.86, 2.27, 2.16, 1.87, 8.16, repro,
1999-08-23,-1.80, 3.39, 8.98, 2.30, 1.88, 8.37, repro,
1999-08-24,0.91, 3.22, -1.59, 2.32, 1.95, 8.69, repro,
1999-08-25,0.51, 5.64, 10.82, 2.29, 1.86, 8.32, repro,
1999-08-26,-1.73, 5.43, 11.47, 2.34, 1.85, 8.68, repro,
1999-08-27,-1.93, 2.61, -0.04, 2.29, 1.95, 8.51, repro,
1999-08-28,-0.54, 5.06, 5.28, 2.22, 1.92, 8.32, repro,
1999-08-29,1.91, 5.58, 23.77, 2.25, 1.95, 9.45, repro,
1999-08-30,-2.49, -0.88, 22.69, 2.34, 1.98, 8.68, repro,
1999-08-31,0.74, 1.86, 16.28, 2.32, 1.97, 8.60, repro,
1999-09-01,-3.02, 2.35, 7.81, 2.39, 1.97, 8.85, repro,
1999-09-02,0.55, 4.53, 9.13, 2.39, 2.01, 8.82, repro,
1999-09-03,0.15, 3.83, 4.99, 2.33, 1.97, 8.59, repro,
1999-09-04,1.34, 4.46, 5.12, 2.34, 1.93, 8.49, repro,
1999-09-05,0.29, 4.72, 0.83, 2.22, 1.85, 8.10, repro,
1999-09-06,-1.95, 4.41, 12.82, 2.29, 1.86, 8.22, repro,
1999-09-07,1.18, 2.05, -1.65, 5.19, 3.78, 20.48, repro,
1999-09-08,0.80, 5.48, 4.30, 2.46, 1.97, 9.18, repro,
1999-09-09,0.49, 5.85, 9.59, 2.31, 1.85, 8.28, repro,
1999-09-10,-0.20, 5.17, 10.14, 2.28, 1.84, 8.09, repro,
1999-09-11,1.20, 5.51, 5.93, 2.51, 2.01, 8.84, repro,
1999-09-12,-0.07, 5.97, 4.22, 2.30, 1.83, 8.24, repro,
1999-09-13,0.10, 5.55, 4.69, 2.20, 1.80, 8.04, repro,
1999-09-14,-0.11, 5.25, 4.73, 2.25, 1.86, 8.16, repro,
1999-09-15,0.76, 5.08, 9.16, 2.27, 1.84, 8.26, repro,
1999-09-16,0.66, 7.13, 17.79, 2.28, 1.85, 8.13, repro,
1999-09-17,2.03, 6.05, 9.72, 2.39, 1.87, 8.38, repro,
1999-09-18,-0.81, 6.18, 7.07, 3.20, 2.68, 11.97, repro,
1999-09-22,0.23, 5.05, -17.27, 7.78, 5.39, 27.87, repro,
1999-09-23,1.34, 5.11, 4.31, 2.39, 2.01, 8.72, repro,
1999-09-24,-0.46, 4.28, 12.24, 2.70, 2.26, 9.95, repro,
1999-09-25,1.70, 5.10, 11.57, 2.27, 1.91, 8.32, repro,
1999-09-26,-0.01, 5.34, 4.41, 2.47, 2.07, 9.06, repro,
1999-09-27,1.63, 5.00, 2.26, 2.44, 2.06, 8.90, repro,
1999-09-28,0.48, 3.50, 2.92, 2.41, 2.02, 8.79, repro,
1999-09-29,0.14, 5.40, 1.20, 2.64, 2.28, 9.57, repro,
1999-09-30,0.47, 5.26, 6.78, 3.72, 3.57, 13.97, repro,
1999-10-01,2.54, 7.84, 10.72, 2.81, 2.38, 10.22, repro,
1999-10-02,3.15, 6.33, 11.60, 2.69, 2.35, 10.18, repro,
1999-10-03,0.67, 4.85, 5.32, 2.41, 2.06, 8.76, repro,
1999-10-04,2.68, 5.33, 11.40, 2.29, 2.02, 8.56, repro,
1999-10-05,-0.17, 4.89, 8.85, 2.37, 1.95, 8.51, repro,
1999-10-06,-2.34, 3.08, 23.33, 2.32, 1.96, 8.63, repro,
1999-10-07,1.10, 6.60, 5.88, 2.44, 1.95, 8.73, repro,
1999-10-08,2.58, 6.77, 11.43, 2.84, 2.49, 10.70, repro,
1999-10-09,-0.98, 5.10, 4.27, 2.27, 1.88, 8.35, repro,
1999-10-10,1.83, 6.13, 10.39, 2.27, 1.85, 8.26, repro,
1999-10-11,1.35, 5.23, 7.25, 2.30, 1.89, 8.28, repro,
1999-10-12,0.67, 5.11, 8.63, 2.44, 2.02, 8.78, repro,
1999-10-13,1.90, 6.18, 4.57, 2.74, 2.37, 10.14, repro,
1999-10-14,1.78, 4.35, 6.16, 2.22, 1.88, 8.21, repro,
1999-10-15,1.38, 5.13, 10.87, 2.38, 1.98, 8.55, repro,
1999-10-16,1.64, 1.93, 6.25, 2.16, 1.84, 8.12, repro,
1999-10-17,0.04, 1.53, 4.66, 2.27, 1.84, 8.28, repro,
1999-10-18,0.59, 1.46, 9.51, 2.39, 1.90, 8.97, repro,
1999-10-19,-0.54, 2.79, 11.55, 2.39, 1.88, 8.75, repro,
1999-10-20,-0.49, 1.44, 0.02, 3.49, 3.06, 14.02, repro,
1999-10-21,-1.45, 1.79, 3.88, 2.19, 1.86, 8.18, repro,
1999-10-22,-1.53, 0.17, 6.82, 2.36, 2.03, 9.01, repro,
1999-10-23,-1.74, 2.59, 2.90, 2.20, 1.89, 8.28, repro,
1999-10-26,-5.04, 8.11, 17.89, 5.82, 4.40, 20.89, repro,
1999-10-27,-3.07, 1.30, 24.31, 2.18, 1.85, 8.29, repro,
1999-10-28,-3.13, 1.70, 7.96, 2.27, 1.91, 8.45, repro,
1999-10-29,1.59, 1.68, 22.76, 2.31, 1.95, 8.59, repro,
1999-10-30,-0.10, 2.11, 9.98, 2.21, 1.83, 8.16, repro,
1999-10-31,0.08, 1.25, 14.56, 2.32, 1.90, 8.44, repro,
1999-11-01,-0.80, 2.40, 7.53, 2.72, 2.26, 10.02, repro,
1999-11-02,-1.74, 5.37, 13.22, 4.11, 3.20, 14.51, repro,
1999-11-03,-0.15, 2.73, 14.34, 2.26, 1.85, 8.36, repro,
1999-11-04,-0.10, 1.78, 9.60, 2.28, 1.84, 8.36, repro,
1999-11-05,0.31, 1.05, 11.27, 2.27, 1.83, 8.29, repro,
1999-11-06,-0.13, 0.40, 4.65, 2.29, 1.85, 8.38, repro,
1999-11-07,-4.08, 0.91, 13.70, 2.18, 1.81, 8.03, repro,
1999-11-08,-4.34, 2.75, 24.20, 2.25, 1.80, 8.20, repro,
1999-11-09,-0.26, -0.94, 19.98, 2.26, 1.87, 8.27, repro,
1999-11-10,-3.56, -2.50, 13.23, 2.18, 1.79, 8.09, repro,
1999-11-11,1.04, 1.91, 15.19, 2.19, 1.78, 8.08, repro,
1999-11-12,-1.58, 1.34, 10.03, 2.20, 1.82, 8.09, repro,
1999-11-13,-2.18, 1.07, 18.65, 2.22, 1.84, 8.25, repro,
1999-11-14,-0.94, 2.94, 8.91, 2.16, 1.78, 7.99, repro,
1999-11-15,-1.91, -1.04, 6.22, 2.29, 1.82, 8.41, repro,
1999-11-16,-1.53, -0.26, 13.81, 2.27, 1.85, 8.24, repro,
1999-11-17,-4.92, -0.90, 14.71, 2.18, 1.78, 8.04, repro,
1999-11-18,-0.97, 1.85, 15.76, 2.17, 1.82, 8.05, repro,
1999-11-19,-4.14, -1.57, 7.38, 2.24, 1.88, 8.24, repro,
1999-11-20,-4.84, -1.23, 6.10, 2.26, 1.90, 8.29, repro,
1999-11-21,1.51, 2.69, 21.80, 2.36, 1.96, 8.56, repro,
1999-11-22,-0.44, 1.51, 16.57, 2.38, 1.93, 8.51, repro,
1999-11-23,-0.42, 0.80, 12.77, 2.41, 2.13, 9.15, repro,
1999-11-24,-0.94, 2.28, 2.92, 2.66, 2.34, 10.17, repro,
1999-11-25,0.70, 1.47, 13.21, 2.43, 1.99, 8.92, repro,
1999-11-26,0.05, 1.56, 10.74, 2.29, 1.96, 8.59, repro,
1999-11-27,-3.18, -4.92, 6.20, 2.12, 1.76, 7.90, repro,
1999-11-28,-1.97, 0.68, 4.70, 2.20, 1.87, 8.15, repro,
1999-11-29,-2.38, -0.05, 1.24, 2.18, 1.82, 8.08, repro,
1999-11-30,-2.91, 0.08, 4.73, 2.32, 1.87, 8.42, repro,
1999-12-01,-2.69, -0.98, 4.99, 2.32, 1.94, 8.67, repro,
1999-12-02,-2.39, 1.15, 19.99, 2.14, 1.80, 8.02, repro,
1999-12-03,-1.21, 1.99, 23.13, 2.42, 2.18, 9.26, repro,
1999-12-04,-1.43, 1.92, 5.53, 2.30, 1.94, 8.49, repro,
1999-12-05,-4.71, 0.93, 9.42, 2.30, 1.97, 8.54, repro,
1999-12-06,-2.17, 0.25, 14.65, 3.83, 3.09, 14.11, repro,
1999-12-07,-2.58, 1.37, 18.99, 2.32, 1.96, 8.81, repro,
1999-12-08,-0.67, 0.11, 10.70, 2.61, 2.25, 9.50, repro,
1999-12-09,-4.63, -0.58, 15.09, 2.27, 1.95, 8.49, repro,
1999-12-10,-1.78, -0.36, 8.76, 2.13, 1.80, 7.94, repro,
1999-12-11,-1.10, 0.29, 7.96, 2.28, 1.94, 8.66, repro,
1999-12-12,-1.09, 2.05, 9.54, 2.24, 1.99, 8.42, repro,
1999-12-13,-5.02, -1.10, 9.65, 2.49, 2.30, 9.55, repro,
1999-12-14,-0.96, 1.36, 9.09, 2.44, 2.00, 8.94, repro,
1999-12-15,-0.04, 0.83, 0.86, 2.31, 2.02, 8.81, repro,
1999-12-16,-1.09, 1.32, 2.71, 2.38, 2.00, 8.90, repro,
1999-12-17,-0.35, 1.70, 10.65, 2.35, 2.03, 8.76, repro,
1999-12-18,1.76, -0.87, 8.59, 2.33, 2.00, 8.78, repro,
1999-12-19,1.49, -0.16, 18.62, 2.27, 1.91, 8.59, repro,
1999-12-20,-0.77, 1.15, 6.91, 2.26, 1.91, 8.44, repro,
1999-12-21,-1.38, 1.52, 12.17, 2.46, 1.96, 9.10, repro,
1999-12-22,0.35, 1.92, 5.58, 2.39, 1.96, 8.84, repro,
1999-12-23,-1.68, -0.47, 5.41, 2.27, 1.97, 8.47, repro,
1999-12-24,-0.32, 1.11, 8.61, 2.43, 2.06, 9.45, repro,
1999-12-25,0.97, 0.92, -6.93, 2.19, 1.85, 8.19, repro,
1999-12-26,0.72, 1.11, -2.51, 2.21, 1.87, 8.28, repro,
1999-12-27,-0.06, 1.85, -12.49, 2.24, 1.81, 8.32, repro,
1999-12-28,-0.20, 0.77, -2.41, 2.33, 1.82, 8.62, repro,
1999-12-29,0.36, 1.28, 2.10, 2.23, 1.86, 8.28, repro,
1999-12-30,1.63, 0.75, 13.23, 2.19, 1.82, 8.22, repro,
1999-12-31,0.99, 1.21, 10.92, 2.20, 1.82, 8.25, repro,
2000-01-01,0.26, 1.92, 11.99, 2.31, 1.90, 8.51, repro,
2000-01-02,-0.87, -5.25, 2.35, 5.10, 4.64, 20.81, repro,
2000-01-03,0.04, 0.96, 7.26, 2.15, 1.83, 8.17, repro,
2000-01-04,-1.11, 0.09, 0.93, 2.23, 1.79, 8.18, repro,
2000-01-05,0.93, 1.68, 4.21, 2.11, 1.77, 7.92, repro,
2000-01-06,0.49, 1.26, -9.27, 2.16, 1.78, 8.06, repro,
2000-01-07,0.33, 1.89, -5.32, 2.16, 1.80, 8.11, repro,
2000-01-08,-1.24, 0.67, 0.49, 2.08, 1.75, 7.82, repro,
2000-01-09,1.15, -0.23, 4.49, 2.08, 1.75, 7.80, repro,
2000-01-10,0.24, 4.33, -1.32, 2.08, 1.76, 7.87, repro,
2000-01-11,-4.25, -3.63, -14.72, 3.77, 3.14, 13.62, repro,
2000-01-12,-3.60, 0.31, -3.18, 2.20, 1.85, 8.37, repro,
2000-01-13,-1.97, 1.18, -2.91, 2.30, 1.83, 8.82, repro,
2000-01-14,-4.71, -0.76, 14.34, 2.22, 1.87, 8.54, repro,
2000-01-15,-3.85, -1.12, -6.51, 2.22, 1.81, 8.56, repro,
2000-01-16,-2.37, 4.32, 0.82, 2.08, 1.76, 7.92, repro,
2000-01-17,-4.52, 4.38, 1.80, 2.15, 1.80, 8.30, repro,
2000-01-18,-7.01, 1.84, -6.08, 2.13, 1.78, 8.18, repro,
2000-01-19,-5.93, -0.30, 10.94, 2.17, 1.83, 8.28, repro,
2000-01-20,-7.52, 0.68, 5.55, 2.27, 1.84, 8.74, repro,
2000-01-21,-5.82, -1.74, 9.35, 2.46, 2.07, 9.12, repro,
2000-01-22,0.56, 1.38, 13.87, 2.48, 2.04, 9.34, repro,
2000-01-23,-3.27, 0.32, 7.61, 2.19, 1.84, 8.56, repro,